Regional Weather Roundup
Issued by NWS

Home | Current Version | Previous Version | Text Only | Print | Product List | Glossary Off
Versions: 1 2 3 4 5 6 7 8 9 10 11 12 13 14 15 16 17 18 19 20 21 22 23 24 25 26 27 28 29 30 31 32 33 34 35 36 37 38 39 40 41 42 43 44 45 46 47 48 49 50

000
ASUS43 KLOT 241807
RWRIL

ILLINOIS REGIONAL WEATHER ROUNDUP
NATIONAL WEATHER SERVICE CHICAGO/ROMEOVILLE IL
100 PM CDT FRI MAR 24 2017

NOTE: "FAIR" INDICATES FEW OR NO CLOUDS BELOW 12,000 FEET WITH NO
SIGNIFICANT WEATHER AND/OR OBSTRUCTIONS TO VISIBILITY.

* THESE STATIONS ARE NOT UNDER NWS QUALITY CONTROL. THEY ALSO MAY NOT
  REPORT WEATHER SUCH AS PRECIPITATION OR FOG.

ILZ001-002-007-009-015-016-024-241900-
NORTHWEST ILLINOIS

CITY           SKY/WX    TMP DP  RH WIND       PRES   REMARKS
MOLINE         SUNNY     78  43  28 SW17G30   29.87S
6HR MIN TEMP:  54; 6HR MAX TEMP:  81;

STERLING*      SUNNY     78  44  29 SW18G26   29.87F
SAVANNA*       CLOUDY    74  46  36 SW14      29.86S
$$

ILZ003-004-008-010-011-017-018-241900-
NORTH CENTRAL ILLINOIS

CITY           SKY/WX    TMP DP  RH WIND       PRES   REMARKS
ROCKFORD       MOSUNNY   79  45  29 SW18G30   29.88F
6HR MIN TEMP:  47; 6HR MAX TEMP:  79;

FREEPORT*      PTSUNNY   74  46  36 SW22G28   29.89S
ROCHELLE*      SUNNY     78  46  33 SW25G33   29.89F
DE KALB*       SUNNY     77  45  32 SW25G35   29.90F
PERU*          SUNNY     76  46  33 SW22      29.91F
$$

ILZ005-006-012>014-019>023-241900-
NORTHEAST ILLINOIS

CITY           SKY/WX    TMP DP  RH WIND       PRES   REMARKS
CHICAGO-OHARE  MOSUNNY   79  43  27 SW25G35   29.89F
6HR MIN TEMP:  52; 6HR MAX TEMP:  79;

CHICAGO-MIDWAY MOSUNNY   78  48  34 SW17G33   29.91F
6HR MIN TEMP:  53; 6HR MAX TEMP:  78;

AURORA         SUNNY     79  44  28 SW22G32   29.91S
6HR MIN TEMP:  46; 6HR MAX TEMP:  79;

LANSING*       SUNNY     76  54  45 SW30      29.94S
JOLIET*        SUNNY     79  48  33 SW18G30   29.92F
WAUKEGAN       MOSUNNY   76  48  37 SW16G36   29.87F
6HR MIN TEMP:  48; 6HR MAX TEMP:  76;

DUPAGE AIRPORT SUNNY     78  46  32 SW22G41   29.90F
6HR MIN TEMP:  47; 6HR MAX TEMP:  78;

KANKAKEE*      SUNNY     79  53  40 SW22G38   29.96F
WHEELING       SUNNY     77  45  32 W20G30    29.90F
6HR MIN TEMP:  51; 6HR MAX TEMP:  77;

MORRIS*        SUNNY     79  46  31 SW24G35   29.91F
ROMEOVILLE*    SUNNY     77  51  40 SW26G36   29.92S
NORTHERLY ISL    N/A     75  42  30 SW14        N/A
$$

LMZ740>746-241900-
SOUTHERN LAKE MICHIGAN

STATION/POSITION SKY/WX   TEMP    WIND        PRES    VSBY  WAVE
                          AIR SEA DIR/SP/G                  HT/PER
                          (F)     (DEG/KT/KT) (MB)    (MI)  (FT/S)
HARRISON CRIB              72     220/ 19/ 21   N/A
BURNHAM HARBOR             76     190/ 14/ 18   N/A
CALUMET HARBOR             76     220/  9/ 26 1012.5F
BURNS HARBOR               71     210/ 20/ 28 1013.9F
MICHIGAN CITY              72     200/ 26/ 29   N/A
$$

ILZ025>027-034>036-040-047-049-050-058-095>099-241900-
WEST-CENTRAL ILLINOIS

CITY           SKY/WX    TMP DP  RH WIND       PRES   REMARKS
QUINCY         CLOUDY    74  44  34 SW17G26   29.93R
GALESBURG*     MOSUNNY   78  43  28 SW25G33   29.91R
MACOMB*        PTSUNNY   77  43  29 SW21G32   29.93S
JACKSONVILLE*  MOSUNNY   76  53  44 S18G28    29.95S
PITTSFIELD*    MOSUNNY   79  50  37 S16G23    29.94F
$$

ILZ028>032-037-038-041>044-048-051>054-059>061-241900-
CENTRAL ILLINOIS

CITY           SKY/WX    TMP DP  RH WIND       PRES   REMARKS
PONTIAC        SUNNY     79  53  39 SW28G33   29.95S
BLOOMINGTON    SUNNY     77  55  46 S32G39    29.96F
DECATUR        SUNNY     75  56  51 SW26G41   30.00F
PEORIA         SUNNY     78  49  35 SW22G30   29.93S
6HR MIN TEMP:  48; 6HR MAX TEMP:  78;

LACON*         SUNNY     78  50  37 SW14G22   29.91F
LINCOLN*       SUNNY     76  57  50 S21G30    29.96F
SPRINGFIELD    SUNNY     78  56  46 S22G33    29.97S
6HR MIN TEMP:  47; 6HR MAX TEMP:  78;

TAYLORVILLE    MOSUNNY   72  57  60 S29G37    29.99F
$$

ILZ033-039-045-046-055>057-062-063-241900-
EAST-CENTRAL ILLINOIS

CITY           SKY/WX    TMP DP  RH WIND       PRES   REMARKS
CHAMPAIGN      SUNNY     77  55  46 S28G39    30.01F
RANTOUL*       SUNNY     77  57  49 SW23G31   30.00F
MATTOON        MOSUNNY   70  58  65 S22G30    30.06S
PARIS*         MOSUNNY   72  58  62 S32       30.07F
$$

ILZ079-100>102-241900-
SOUTHWEST ILLINOIS

CITY           SKY/WX    TMP DP  RH WIND       PRES   REMARKS
ALTON          MOSUNNY   75  55  50 S21G31    29.99F
BELLEVILLE     MOSUNNY   75  58  56 S23G29    29.99F
CAHOKIA*       MOSUNNY   76  54  46 S21G26    29.99F
SPARTA*        CLOUDY    71  57  63 S16G28    30.05F
$$

ILZ064>066-069>071-074>076-080>082-084>086-088>090-092>094-241900-
SOUTH-CENTRAL ILLINOIS

CITY           SKY/WX    TMP DP  RH WIND       PRES   REMARKS
CARBONDALE     CLOUDY    70  59  68 S21G41    30.08F
6HR MIN TEMP:  62; 6HR MAX TEMP:  70;

CAIRO*         CLOUDY    70  60  70 S10G24    30.14F
EFFINGHAM*     CLOUDY    70  58  66 S17G30    30.09S
MARION         PTSUNNY   72  61  68 S17G30    30.10F
MT. VERNON     PTSUNNY   72  59  63 S25G37    30.07F
CENTRALIA*     PTSUNNY   73  60  65 S24G40    30.05S
SALEM*         CLOUDY    72  58  61 S24G35    30.06F
METROPOLIS*    CLOUDY    72  59  63 S18G28    30.15F
$$

ILZ067-068-072-073-078-083-087-091-241900-
SOUTHEAST ILLINOIS

CITY           SKY/WX    TMP DP  RH WIND       PRES   REMARKS
LAWRENCEVILLE  CLOUDY    70  57  63 S24G35    30.13F
FLORA*         CLOUDY    72  59  64 S28G36    30.08F
FAIRFIELD*     CLOUDY    71  59  66 S16       30.09F
HARRISBURG*    CLOUDY    70  59  68 SW20G28   30.13F
ROBINSON*      CLOUDY    71  57  62 S20G39    30.11F
CARMI*         CLOUDY    70  59  69 S23G29    30.13F
$$

ABBREVIATIONS USED IN REMARKS
   TC - TEMPERATURE IN CELSIUS
  WCI - WIND CHILL INDEX
   HX - HEAT INDEX
  VSB - VISIBILITY
$$





USA.gov is the U.S. government's official web portal to all federal, state and local government web resources and services.